Showing default

COSMOS 1563, 15002

Orbit data source: Space-Track

COSMOS 1563, 15002 is a payload satellite owned by GUKOS (CIS) in LEO that was launched on Mon, 28 May 1984 UTC via a KOSMOS 11K65M launch vehicle from the Plesetsk Missile And Space Complex (PKMTR). Payload-class satellites include a variety of spacecraft equipped with specific instruments for various scientific and technological missions. These include communications satellites like Starlink; space stations such as the ISS; scientific satellites like the Hubble; Earth observation satellites from companies like Planet Labs, Umbra, and HawkEye 360; GPS; miniature CubeSats for education and research; and military/defense satellites.

Loading next visibility...
Identifier
15002, 1984-052E
Orbit
LEO
Last TLE update
7 hours ago
Origin
Manufacturer
NPO PM
Mission
Defense Communications
Bus & Motor
STRELA-1 11F625, Unknown motor
Mass
60 kg wet, 60 kg dry
Launch date (UTC)
1984-05-28 (41 years ago)
Launch vehicle
KOSMOS 11K65M
Launch site
Plesetsk Missile And Space Complex (PKMTR)
Object type
Payload
Rocket body
Debris
Shape & HBR
Sphere, 0.8 m
Radar Cross Section
0.588 m², Medium (>0.1 m² and < 1m²)

Expand to show TLE details & history

TLE from 7 hours ago
0 COSMOS 1563
1 15002U 84052E   25183.81422471 -.00000003  00000-0  83540-4 0  9993
2 15002  74.0137 350.7121 0024579 197.8081 267.8668 12.51833016610664
Epoch: 2025-07-02T19:32Z
TLE epoch observation values (Epoch: 2025-07-02T19:32:29.014Z)
Latitude
68.03321°
Longitude
-88.47207°
Altitude
1,469.015 km
Speed
7.134 km/s
True Right ascension
08h 22m 57s
True Declination
67° 55' 28"
Sunlit
Object was in daylight at epoch
Visualization orbit readout
Latitude
-70.94486°
Longitude
80.50477°
Altitude
1,480.584 km
Speed
7.124 km/s
Apparent Right ascension
00h 03m 41s
Apparent Declination
-65° 04' 19"
Sunlit
Object is in full shadow
Visualization observer readout
Local Sidereal Time
13:58:31
Azimuth
156.166° SSE
Elevation
-59.929°
Doppler factor
1
Orbital elements
Apogee altitude
1,473.924 km
Perigee altitude
1,435.419 km
Semi-major axis
7,832.808 km
Eccentricity
0.00246
Inclination
74.0137°
RAAN
350.7121°
Arg. of periapsis
197.8081°
True anomaly
Unknown
Mean anomaly
267.8668°
Eccentric anomaly
Unknown
Mean motion
3.13088 °/min
Orbital period
114.98 mins
BSTAR
0.00008354
Loading maneuver chart data...
Loading SW <> Apogee altitude chart data...
Loading historical data...
Loading historical data...
Loading historical data...
Loading historical data...
Loading historical data...
Loading historical data...
Loading historical data...

COSMOS 1563 Visibility forecast

Observer location: undefined°, undefined°

Span
Click to sort rows by Start time (UTC) header in descending order
Start Az.
Max El. time (UTC)
Max El. Az.
Max El.
End time (UTC)
End Az.
10 mins2025-07-03 10:26:32.817Z125.605° SE2025-07-03 10:31:32.817Z89.846° E16.518°2025-07-03 10:36:32.817Z53.697° ENE
15 mins2025-07-03 12:20:32.817Z196.642° SSW2025-07-03 12:27:32.817Z197.434° SSW44.951°2025-07-03 12:35:32.817Z19.116° NNE
11 mins2025-07-03 14:21:32.817Z270.867° WNW2025-07-03 14:26:32.817Z310.941° NW20.009°2025-07-03 14:32:32.817Z355.757° N
10 mins2025-07-03 20:30:32.817Z11.962° NNE2025-07-03 20:35:32.817Z52.647° ENE19.879°2025-07-03 20:40:32.817Z91.89° ESE
15 mins2025-07-03 22:26:32.817Z340.753° N2025-07-03 22:33:32.817Z335.726° NNW44.825°2025-07-03 22:41:32.817Z163.805° S
8 mins2025-07-04 00:26:32.817Z297.58° NW2025-07-04 00:29:32.817Z274.886° WNW15.887°2025-07-04 00:34:32.817Z237.688° WSW
|